CZ-4C R/B, 50467

Orbit data source: Space-Track

CZ-4C R/B, 50467 is space debris in SSO originally from a launch on Sun, 26 Dec 2021 UTC launched from the Taiyaun Space Center, China (TSC). Debris objects in space refer to the collection of defunct objects orbiting the Earth. Examples of debris include non-operational satellites, rocket bodies, and fragments generated from explosions, collisions, or faulty payload assembly.

Loading next visibility...
Identifier
50467, 2021-131C
Orbit
SSO
Country
Flag of CNCN / PRC
Related business
Manufacturer
SAST
Mission
Spacecraft
Bus & Motor
CZ-4 STAGE 3, Unknown motor
Mass
~1,000 kg wet, ~1,000 kg dry
Launch date (UTC)
2021-12-26 (4 years ago)
Launch vehicle
Unknown
Launch site
Taiyaun Space Center, China (TSC)
Object type
Payload
Rocket body
Debris
Shape & HBR
Cyl, 1.4 m
Radar Cross Section
7.676 m², Large (>1 m²)

Expand to show TLE details & history
Last TLE update: 8 hours ago

TLE from 8 hours ago
0 CZ-4C R/B
1 50467U 21131C   25346.97100741  .00001382  00000-0  23330-3 0  9997
2 50467  98.7192 155.8759 0108374 249.3247 109.6310 14.67531312212046
Epoch: 2025-12-12T23:18Z
TLE epoch observation values (Epoch: 2025-12-12T23:18:15.040Z)
Latitude
-0.00001°
Longitude
84.40825°
Altitude
698.333 km
Speed
7.493 km/s
True Right ascension
10h 23m 30s
True Declination
0° 00' 00"
Sunlit
Object was in daylight at epoch
Visualization orbit readout
Latitude
Unknown
Longitude
Unknown
Altitude
Unknown
Speed
Unknown
Apparent Right ascension
Unknown
Apparent Declination
Unknown
Sunlit
N/A
Visualization observer readout
Local Sidereal Time
05:21:55
Azimuth
Unknown
Elevation
Unknown
Doppler factor
Unknown
Orbital elements
Apogee altitude
742.396 km
Perigee altitude
589.715 km
Semi-major axis
7,044.192 km
Eccentricity
0.01084
Inclination
98.7192°
RAAN
155.8759°
Arg. of periapsis
249.3247°
True anomaly
110.79531°
Mean anomaly
109.631°
Eccentric anomaly
110.21369°
Mean motion
3.6711 °/min
Orbital period
98.06 mins
BSTAR
0.0002333
Loading maneuver chart data...
Computing Atmospheric mass density...
Loading historical data...
Loading historical data...
Loading historical data...
Loading historical data...
Loading historical data...
Loading historical data...
Loading historical data...
Other satellites on launch #131 in the year 2021 (2021-12-26 UTC)

Documentation

Showing up to 5 results
|